Skip Page Navigation
NASA JPL Caltech
NASA Logo - Jet Propulsion Laboratory + View the NASA Portal
+ Center for Near-Earth Object Studies
JPL Home Earth Solar System Stars & Galaxies Technology
JPL Solar System Dynamics
BODIES ORBITS EPHEMERIDES TOOLS PHYSICAL DATA DISCOVERY FAQ SITE MAP
JPL Small-Body Database Browser
Search: [ help ]  
(2020 FN3)
Classification: Apollo [NEO]          SPK-ID: 54016324
Ephemeris | Orbit Diagram | Orbital Elements | Mission Design | Physical Parameters | Close-Approach Data ]

[ show orbit diagram ]
Orbital Elements at Epoch 2459200.5 (2020-Dec-17.0) TDB
Reference: JPL 9 (heliocentric ecliptic J2000)
 Element Value Uncertainty (1-sigma)   Units 
e .208089916190118 1.8013e-06  
a 1.012968546060029 1.6406e-07 au
q .8021800062071716 1.6971e-06 au
i .896468554674444 9.7308e-06 deg
node 20.78203359301774 0.00027199 deg
peri 270.0843307653058 0.00026472 deg
M 171.2456776834585 0.00010832 deg
tp 2459023.362918538927
(2020-Jun-22.86291854)
0.00014368 TDB
period 372.3851614162297
1.02
9.0467e-05
2.477e-07
d
yr
n .9667409910504292 2.3486e-07 deg/d
Q 1.223757085912886 1.982e-07 au
  Orbit Determination Parameters
   # obs. used (total)      47  
   data-arc span      326 days  
   first obs. used      2020-03-22  
   last obs. used      2021-02-11  
   planetary ephem.      DE441  
   SB-pert. ephem.      SB441-N16  
   condition code      2  
   norm. resid. RMS      .49779  
   source      ORB  
   producer      Otto Matic  
   solution date      2021-Apr-15 22:21:04  

Additional Information
 Earth MOID = .00208079 au 
 Jupiter MOID = 3.89954 au 
 T_jup = 6.000 
[ show covariance matrix ]

Ephemeris | Orbit Diagram | Orbital Elements | Mission Design | Physical Parameters | Close-Approach Data ]

Physical Parameter Table
Parameter Symbol Value Units Sigma Reference Notes
absolute magnitude H 24.35   .51849 E2021-CK0 autocmod 2.8

[ show close-approach data ]
Ephemeris | Orbit Diagram | Orbital Elements | Mission Design | Physical Parameters | Close-Approach Data ]
ABOUT SSD CREDITS/AWARDS PRIVACY/COPYRIGHT GLOSSARY LINKS
FirstGov 2021-Apr-18 07:09 UT
(server date/time)  
NASA Home Page
Site Manager:   Ryan S. Park
Webmaster  Alan B. Chamberlin